Location: All Nations United Methodist Church
(33.0215°N, 96.7483°W)
Time: 15:35:54
(UTC+00:00)

USA 307 - Pass Details

Date: 24 January 2021
Orbit: 562 x 583 km, 54.0° (Epoch: 02 March)

Event Time Altitude Azimuth Distance (km) Brightness Sun altitude
Exits shadow 12:37:04 15° 289° (WNW) 1,558 4.4 -10.7°
Maximum altitude 12:39:03 20° 324° (NW) 1,328 4.3 -10.3°
Drops below altitude 10° 12:42:11 10° 13° (NNE) 1,853 5.5 -9.6°
Sets 12:44:56 0° 30° (NNE) 2,752 6.6 -9.1°
